RUK178 EGAA-EGPH

Flight info

Callsign RUK178
Flight time 0h 26m
Altitude 23000
Route BLACA P600 TUNSO
Aircraft B738/M-SDE2E3FGHIRWXY/LB1

Departure

Time 2026-04-20 19:22
Airport Belfast International Airport (EGAA)

Arrival

Time 2026-04-20 19:49
Airport Edinburgh Airport (EGPH)
Time Latitude Longitude Altitude Speed Heading
2026-04-20 19:06 54.66007 -6.21736 277 ft 0 kts 246°
2026-04-20 19:12 54.66008 -6.21733 277 ft 1 kts 246°
2026-04-20 19:12 54.66014 -6.21709 277 ft 3 kts 246°
2026-04-20 19:13 54.66021 -6.21678 277 ft 3 kts 246°
2026-04-20 19:13 54.66027 -6.21657 277 ft 1 kts 246°
2026-04-20 19:13 54.66033 -6.21634 277 ft 3 kts 237°
2026-04-20 19:13 54.66046 -6.21610 277 ft 3 kts 214°
2026-04-20 19:14 54.66060 -6.21598 277 ft 0 kts 198°
2026-04-20 19:14 54.66054 -6.21601 277 ft 2 kts 198°
2026-04-20 19:14 54.66031 -6.21612 277 ft 4 kts 187°
2026-04-20 19:15 54.65996 -6.21596 277 ft 7 kts 157°
2026-04-20 19:15 54.65941 -6.21593 277 ft 10 kts 210°
2026-04-20 19:15 54.65898 -6.21706 277 ft 13 kts 245°
2026-04-20 19:15 54.65853 -6.21872 277 ft 17 kts 245°
2026-04-20 19:16 54.65800 -6.22078 277 ft 20 kts 251°
2026-04-20 19:16 54.65766 -6.22331 277 ft 24 kts 263°
2026-04-20 19:16 54.65746 -6.22633 277 ft 26 kts 263°
2026-04-20 19:16 54.65711 -6.22889 277 ft 23 kts 242°
2026-04-20 19:17 54.65616 -6.23121 277 ft 18 kts 234°
2026-04-20 19:17 54.65566 -6.23237 277 ft 19 kts 233°
2026-04-20 19:17 54.65485 -6.23346 277 ft 7 kts 199°
2026-04-20 19:17 54.65449 -6.23368 277 ft 4 kts 199°
2026-04-20 19:18 54.65430 -6.23380 277 ft 5 kts 199°
2026-04-20 19:18 54.65374 -6.23394 277 ft 4 kts 155°
2026-04-20 19:18 54.65371 -6.23392 277 ft 0 kts 155°
2026-04-20 19:19 54.65370 -6.23392 277 ft 0 kts 155°
2026-04-20 19:20 54.65369 -6.23390 277 ft 1 kts 155°
2026-04-20 19:20 54.65342 -6.23369 277 ft 7 kts 155°
2026-04-20 19:20 54.65291 -6.23305 277 ft 9 kts 104°
2026-04-20 19:20 54.65301 -6.23239 277 ft 2 kts 65°
2026-04-20 19:21 54.65301 -6.23236 277 ft 0 kts 65°
2026-04-20 19:21 54.65352 -6.23050 277 ft 47 kts 65°
2026-04-20 19:21 54.65590 -6.22162 277 ft 113 kts 65°
2026-04-20 19:22 54.65999 -6.20642 376 ft 159 kts 65°
2026-04-20 19:22 54.66484 -6.18842 1038 ft 172 kts 65°
2026-04-20 19:22 54.66981 -6.16854 1704 ft 188 kts 69°
2026-04-20 19:22 54.67461 -6.14681 2361 ft 204 kts 70°
2026-04-20 19:23 54.67974 -6.12303 3137 ft 216 kts 70°
2026-04-20 19:23 54.68506 -6.09825 3946 ft 226 kts 70°
2026-04-20 19:23 54.69073 -6.07187 4733 ft 242 kts 70°
2026-04-20 19:23 54.69676 -6.04390 5565 ft 258 kts 70°
2026-04-20 19:24 54.70325 -6.01388 6433 ft 274 kts 70°
2026-04-20 19:24 54.70996 -5.98212 7296 ft 288 kts 71°
2026-04-20 19:24 54.71700 -5.94877 8160 ft 301 kts 70°
2026-04-20 19:24 54.72443 -5.91404 9024 ft 312 kts 70°
2026-04-20 19:25 54.73195 -5.87860 9870 ft 325 kts 70°
2026-04-20 19:25 54.73996 -5.84085 10739 ft 338 kts 70°
2026-04-20 19:25 54.74819 -5.80181 11600 ft 350 kts 70°
2026-04-20 19:25 54.75651 -5.76201 12449 ft 360 kts 70°
2026-04-20 19:26 54.76510 -5.72045 13309 ft 368 kts 70°
2026-04-20 19:26 54.77378 -5.67887 14156 ft 374 kts 70°
2026-04-20 19:26 54.78283 -5.63607 15013 ft 380 kts 69°
2026-04-20 19:26 54.79212 -5.59232 15873 ft 390 kts 69°
2026-04-20 19:27 54.80160 -5.54775 16728 ft 396 kts 69°
2026-04-20 19:27 54.81109 -5.50309 17574 ft 399 kts 69°
2026-04-20 19:27 54.82070 -5.45767 18428 ft 401 kts 69°
2026-04-20 19:27 54.83031 -5.41207 19281 ft 402 kts 69°
2026-04-20 19:28 54.83979 -5.36693 20124 ft 402 kts 69°
2026-04-20 19:28 54.84936 -5.32119 20976 ft 403 kts 69°
2026-04-20 19:28 54.85906 -5.27542 21829 ft 402 kts 69°
2026-04-20 19:28 54.86984 -5.23053 22684 ft 401 kts 60°
2026-04-20 19:29 54.88628 -5.19198 23274 ft 406 kts 46°
2026-04-20 19:29 54.90737 -5.15891 23407 ft 408 kts 37°
2026-04-20 19:29 54.93051 -5.13036 23396 ft 407 kts 32°
2026-04-20 19:29 54.95459 -5.10471 23373 ft 404 kts 29°
2026-04-20 19:30 54.97902 -5.08075 23363 ft 402 kts 28°
2026-04-20 19:30 55.00331 -5.05797 23359 ft 401 kts 27°
2026-04-20 19:30 55.02809 -5.03559 23381 ft 400 kts 26°
2026-04-20 19:30 55.05293 -5.01341 23369 ft 400 kts 26°
2026-04-20 19:31 55.07674 -4.98823 23360 ft 400 kts 38°
2026-04-20 19:31 55.09574 -4.95325 23368 ft 401 kts 52°
2026-04-20 19:31 55.11139 -4.91260 23368 ft 401 kts 58°
2026-04-20 19:31 55.12520 -4.86968 22922 ft 408 kts 62°
2026-04-20 19:32 55.13799 -4.82532 22358 ft 408 kts 64°
2026-04-20 19:32 55.15004 -4.78117 21774 ft 406 kts 65°
2026-04-20 19:32 55.16192 -4.73643 21174 ft 404 kts 65°
2026-04-20 19:32 55.17368 -4.69139 20568 ft 403 kts 65°
2026-04-20 19:33 55.18511 -4.64714 19973 ft 402 kts 65°
2026-04-20 19:33 55.19766 -4.60348 19369 ft 401 kts 58°
2026-04-20 19:33 55.21595 -4.56631 18776 ft 402 kts 44°
2026-04-20 19:33 55.23741 -4.53541 18194 ft 404 kts 37°
2026-04-20 19:34 55.26074 -4.50718 17596 ft 405 kts 34°
2026-04-20 19:34 55.28436 -4.48107 17047 ft 405 kts 32°
2026-04-20 19:34 55.30862 -4.45549 16541 ft 406 kts 32°
2026-04-20 19:34 55.33306 -4.43033 16039 ft 407 kts 31°
2026-04-20 19:35 55.35745 -4.40557 15542 ft 408 kts 31°
2026-04-20 19:35 55.38221 -4.38059 15038 ft 409 kts 31°
2026-04-20 19:35 55.40704 -4.35567 14536 ft 410 kts 31°
2026-04-20 19:35 55.43192 -4.33080 14034 ft 411 kts 31°
2026-04-20 19:36 55.45602 -4.30681 13541 ft 387 kts 31°
2026-04-20 19:36 55.47864 -4.28443 13040 ft 358 kts 31°
2026-04-20 19:36 55.49985 -4.26355 12534 ft 336 kts 31°
2026-04-20 19:36 55.51984 -4.24394 12038 ft 319 kts 31°
2026-04-20 19:37 55.53862 -4.22565 11657 ft 303 kts 31°
2026-04-20 19:37 55.55684 -4.20795 11277 ft 294 kts 31°
2026-04-20 19:37 55.57462 -4.19060 10899 ft 289 kts 31°
2026-04-20 19:37 55.59195 -4.17357 10526 ft 286 kts 31°
2026-04-20 19:38 55.60934 -4.15637 10149 ft 284 kts 31°
2026-04-20 19:38 55.62636 -4.13942 9776 ft 283 kts 31°
2026-04-20 19:38 55.64349 -4.12220 9399 ft 281 kts 31°
2026-04-20 19:38 55.66051 -4.10498 9021 ft 280 kts 31°
2026-04-20 19:39 55.67713 -4.08802 8652 ft 278 kts 31°
2026-04-20 19:39 55.69394 -4.07086 8273 ft 276 kts 31°
2026-04-20 19:39 55.71042 -4.05406 7917 ft 267 kts 31°
2026-04-20 19:39 55.72598 -4.03826 7666 ft 253 kts 31°
2026-04-20 19:40 55.73916 -4.01873 7387 ft 240 kts 53°
2026-04-20 19:40 55.74713 -3.99378 7171 ft 231 kts 64°
2026-04-20 19:40 55.75403 -3.96824 6917 ft 227 kts 65°
2026-04-20 19:40 55.76074 -3.94339 6669 ft 224 kts 65°
2026-04-20 19:41 55.76775 -3.91869 6414 ft 221 kts 63°
2026-04-20 19:41 55.77489 -3.89485 6169 ft 220 kts 63°
2026-04-20 19:41 55.78232 -3.87111 5916 ft 218 kts 62°
2026-04-20 19:41 55.78985 -3.84778 5669 ft 217 kts 61°
2026-04-20 19:42 55.79739 -3.82491 5416 ft 215 kts 60°
2026-04-20 19:42 55.80501 -3.80211 5167 ft 212 kts 60°
2026-04-20 19:42 55.81239 -3.78018 4953 ft 201 kts 60°
2026-04-20 19:42 55.81946 -3.75931 4701 ft 192 kts 60°
2026-04-20 19:43 55.82618 -3.73944 4447 ft 184 kts 60°
2026-04-20 19:43 55.83275 -3.72004 4183 ft 179 kts 60°
2026-04-20 19:43 55.83904 -3.70145 3928 ft 175 kts 60°
2026-04-20 19:43 55.84528 -3.68300 3681 ft 173 kts 60°
2026-04-20 19:44 55.85138 -3.66497 3501 ft 169 kts 60°
2026-04-20 19:44 55.85746 -3.64696 3324 ft 168 kts 60°
2026-04-20 19:44 55.86346 -3.62917 3149 ft 168 kts 60°
2026-04-20 19:44 55.86950 -3.61128 2975 ft 168 kts 60°
2026-04-20 19:45 55.87553 -3.59340 2805 ft 168 kts 60°
2026-04-20 19:45 55.88146 -3.57579 2620 ft 167 kts 60°
2026-04-20 19:45 55.88744 -3.55804 2452 ft 167 kts 60°
2026-04-20 19:45 55.89339 -3.54042 2271 ft 161 kts 60°
2026-04-20 19:46 55.89900 -3.52384 2078 ft 151 kts 60°
2026-04-20 19:46 55.90406 -3.50891 1923 ft 134 kts 59°
2026-04-20 19:46 55.90879 -3.49487 1727 ft 131 kts 59°
2026-04-20 19:46 55.91342 -3.48115 1529 ft 130 kts 59°
2026-04-20 19:47 55.91810 -3.46730 1330 ft 130 kts 59°
2026-04-20 19:47 55.92278 -3.45342 1130 ft 130 kts 59°
2026-04-20 19:47 55.92746 -3.43955 930 ft 130 kts 59°
2026-04-20 19:47 55.93206 -3.42587 732 ft 130 kts 59°
2026-04-20 19:48 55.93672 -3.41205 531 ft 129 kts 59°
2026-04-20 19:48 55.94132 -3.39839 332 ft 129 kts 59°
2026-04-20 19:48 55.94585 -3.38490 151 ft 123 kts 59°
2026-04-20 19:48 55.94947 -3.37412 144 ft 71 kts 59°
2026-04-20 19:49 55.95124 -3.36886 144 ft 38 kts 59°
2026-04-20 19:49 55.95236 -3.36552 144 ft 25 kts 60°
2026-04-20 19:49 55.95252 -3.36411 144 ft 5 kts 142°
2026-04-20 19:49 55.95228 -3.36384 144 ft 7 kts 148°
2026-04-20 19:50 55.95193 -3.36348 144 ft 7 kts 149°
2026-04-20 19:50 55.95148 -3.36275 144 ft 10 kts 116°
2026-04-20 19:50 55.95121 -3.36137 144 ft 13 kts 108°
2026-04-20 19:50 55.95083 -3.35969 144 ft 16 kts 118°
2026-04-20 19:51 55.95025 -3.35833 144 ft 10 kts 169°
2026-04-20 19:51 55.94956 -3.35879 144 ft 11 kts 179°
2026-04-20 19:51 55.94914 -3.35793 144 ft 10 kts 118°
2026-04-20 19:51 55.94876 -3.35668 144 ft 11 kts 118°
2026-04-20 19:52 55.94834 -3.35648 144 ft 7 kts 208°
2026-04-20 19:52 55.94800 -3.35681 144 ft 1 kts 209°